Météo par heure à Juodkrante

Ce jour, 20 Juin, Dimanche

Heure Température Précipitation Vent Pression Humidité
00:00 +20°C° 0 mm 4 m/s 759 mmHg 84%
01:00 +20°C° 0 mm 5 m/s 759 mmHg 86%
02:00 +20°C° 0 mm 5 m/s 759 mmHg 87%
03:00 +20°C° 0 mm 5 m/s 759 mmHg 89%
04:00 +20°C° 0 mm 5 m/s 759 mmHg 90%
05:00 +21°C° 0 mm 5 m/s 759 mmHg 84%
06:00 +23°C° 0 mm 5 m/s 759 mmHg 77%
07:00 +26°C° 0 mm 5 m/s 759 mmHg 71%
08:00 +27°C° 0 mm 5 m/s 759 mmHg 66%
09:00 +28°C° 0 mm 5 m/s 759 mmHg 62%
10:00 +29°C° 0 mm 5 m/s 759 mmHg 57%
11:00 +29°C° 0 mm 5 m/s 759 mmHg 55%
12:00 +30°C° 0 mm 4 m/s 759 mmHg 54%
13:00 +30°C° 0 mm 4 m/s 758 mmHg 52%
14:00 +30°C° 0 mm 4 m/s 758 mmHg 54%
15:00 +30°C° 0 mm 4 m/s 758 mmHg 56%
16:00 +30°C° 0 mm 3 m/s 758 mmHg 58%
17:00 +28°C° 0.1 mm 4 m/s 758 mmHg 65%
18:00 +27°C° 0.1 mm 4 m/s 757 mmHg 73%
19:00 +25°C° 0.1 mm 4 m/s 757 mmHg 81%
20:00 +25°C° 0 mm 5 m/s 757 mmHg 84%
21:00 +23°C° 0 mm 5 m/s 757 mmHg 86%
22:00 +22°C° 0 mm 5 m/s 757 mmHg 89%
23:00 +21°C° 0 mm 5 m/s 757 mmHg 90%

Demain, 21 Juin, Lundi

Heure Température Précipitation Vent Pression Humidité
00:00 +21°C° 0 mm 5 m/s 757 mmHg 91%
01:00 +21°C° 0 mm 5 m/s 757 mmHg 91%
02:00 +20°C° 0 mm 5 m/s 757 mmHg 92%
03:00 +20°C° 0 mm 5 m/s 757 mmHg 92%
04:00 +20°C° 0 mm 5 m/s 757 mmHg 92%
05:00 +22°C° 0 mm 5 m/s 757 mmHg 86%
06:00 +23°C° 0 mm 5 m/s 757 mmHg 80%
07:00 +26°C° 0 mm 4 m/s 757 mmHg 74%
08:00 +27°C° 0 mm 5 m/s 757 mmHg 69%
09:00 +28°C° 0 mm 5 m/s 757 mmHg 64%
10:00 +30°C° 0 mm 5 m/s 757 mmHg 58%
11:00 +30°C° 0 mm 5 m/s 756 mmHg 55%
12:00 +32°C° 0 mm 5 m/s 756 mmHg 51%
13:00 +32°C° 0 mm 5 m/s 756 mmHg 48%
14:00 +32°C° 0 mm 5 m/s 756 mmHg 49%
15:00 +32°C° 0 mm 5 m/s 756 mmHg 51%
16:00 +32°C° 0 mm 5 m/s 755 mmHg 52%
17:00 +29°C° 0 mm 5 m/s 755 mmHg 58%
18:00 +28°C° 0 mm 5 m/s 755 mmHg 64%
19:00 +27°C° 0 mm 5 m/s 755 mmHg 70%
20:00 +26°C° 0 mm 5 m/s 755 mmHg 74%
21:00 +23°C° 0 mm 5 m/s 755 mmHg 77%
22:00 +22°C° 0 mm 5 m/s 755 mmHg 81%
23:00 +22°C° 0 mm 5 m/s 755 mmHg 84%

Après-demain, 22 Juin, Mardi

Heure Température Précipitation Vent Pression Humidité
00:00 +21°C° 0 mm 5 m/s 755 mmHg 88%
01:00 +20°C° 0 mm 5 m/s 755 mmHg 92%
02:00 +20°C° 0 mm 5 m/s 754 mmHg 92%
03:00 +20°C° 0 mm 5 m/s 754 mmHg 92%
04:00 +20°C° 0 mm 5 m/s 754 mmHg 92%
05:00 +21°C° 0 mm 5 m/s 755 mmHg 86%
06:00 +23°C° 0 mm 5 m/s 755 mmHg 80%
07:00 +26°C° 0 mm 5 m/s 755 mmHg 74%
08:00 +26°C° 0.3 mm 4 m/s 755 mmHg 75%
09:00 +26°C° 0.3 mm 4 m/s 755 mmHg 76%
10:00 +27°C° 0.3 mm 4 m/s 755 mmHg 77%
11:00 +26°C° 0.1 mm 5 m/s 756 mmHg 76%
12:00 +26°C° 0.1 mm 5 m/s 756 mmHg 76%
13:00 +25°C° 0.1 mm 5 m/s 757 mmHg 75%
14:00 +23°C° 0 mm 5 m/s 757 mmHg 75%
15:00 +22°C° 0 mm 5 m/s 757 mmHg 75%
16:00 +21°C° 0 mm 4 m/s 758 mmHg 75%
17:00 +20°C° 0 mm 4 m/s 758 mmHg 77%
18:00 +20°C° 0 mm 4 m/s 758 mmHg 80%
19:00 +19°C° 0 mm 4 m/s 758 mmHg 83%
20:00 +18°C° 0 mm 4 m/s 758 mmHg 85%
21:00 +17°C° 0 mm 3 m/s 759 mmHg 87%
22:00 +16°C° 0 mm 3 m/s 759 mmHg 90%
23:00 +15°C° 0 mm 2 m/s 759 mmHg 88%

23 Juin, Mercredi

Heure Température Précipitation Vent Pression Humidité
00:00 +15°C° 0 mm 2 m/s 759 mmHg 87%
01:00 +15°C° 0 mm 2 m/s 759 mmHg 86%
02:00 +15°C° 0 mm 2 m/s 759 mmHg 84%
03:00 +15°C° 0 mm 1 m/s 759 mmHg 82%
04:00 +15°C° 0 mm 1 m/s 759 mmHg 80%
05:00 +18°C° 0 mm 1 m/s 759 mmHg 72%
06:00 +20°C° 0 mm 1 m/s 759 mmHg 64%
07:00 +21°C° 0 mm 1 m/s 759 mmHg 57%
08:00 +23°C° 0 mm 1 m/s 759 mmHg 54%
09:00 +24°C° 0 mm 1 m/s 759 mmHg 51%
10:00 +25°C° 0 mm 1 m/s 759 mmHg 48%
11:00 +26°C° 0 mm 2 m/s 759 mmHg 48%
12:00 +27°C° 0 mm 2 m/s 760 mmHg 47%
13:00 +28°C° 0 mm 2 m/s 760 mmHg 46%
14:00 +28°C° 0 mm 3 m/s 760 mmHg 48%
15:00 +27°C° 0 mm 3 m/s 760 mmHg 49%
16:00 +27°C° 0 mm 4 m/s 759 mmHg 50%
17:00 +26°C° 0 mm 4 m/s 759 mmHg 57%
18:00 +23°C° 0 mm 4 m/s 759 mmHg 63%
19:00 +22°C° 0 mm 4 m/s 759 mmHg 69%
20:00 +22°C° 0.1 mm 3 m/s 759 mmHg 72%
21:00 +22°C° 0.1 mm 3 m/s 759 mmHg 75%
22:00 +21°C° 0.1 mm 3 m/s 759 mmHg 77%
23:00 +21°C° 0.2 mm 3 m/s 759 mmHg 82%

24 Juin, Jeudi

Heure Température Précipitation Vent Pression Humidité
00:00 +21°C° 0.2 mm 2 m/s 759 mmHg 87%
01:00 +21°C° 0.2 mm 2 m/s 758 mmHg 91%
02:00 +21°C° 0.8 mm 2 m/s 758 mmHg 93%
03:00 +21°C° 0.8 mm 1 m/s 758 mmHg 95%
04:00 +21°C° 0.8 mm 1 m/s 758 mmHg 96%
05:00 +21°C° 0 mm 2 m/s 759 mmHg 93%
06:00 +22°C° 0 mm 3 m/s 759 mmHg 90%
07:00 +24°C° 0 mm 3 m/s 759 mmHg 86%
08:00 +25°C° 0 mm 4 m/s 759 mmHg 80%
09:00 +25°C° 0 mm 4 m/s 759 mmHg 75%
10:00 +25°C° 0 mm 5 m/s 760 mmHg 69%
11:00 +25°C° 0 mm 5 m/s 760 mmHg 69%
12:00 +23°C° 0 mm 5 m/s 760 mmHg 69%
13:00 +23°C° 0 mm 5 m/s 760 mmHg 70%
14:00 +22°C° 0 mm 5 m/s 760 mmHg 71%
15:00 +22°C° 0 mm 5 m/s 761 mmHg 71%
16:00 +21°C° 0 mm 5 m/s 761 mmHg 72%
17:00 +21°C° 0 mm 5 m/s 760 mmHg 77%
18:00 +20°C° 0 mm 4 m/s 760 mmHg 81%
19:00 +19°C° 0 mm 4 m/s 760 mmHg 85%
20:00 +18°C° 0 mm 4 m/s 760 mmHg 89%
21:00 +17°C° 0 mm 3 m/s 760 mmHg 93%
22:00 +16°C° 0 mm 3 m/s 760 mmHg 96%
23:00 +16°C° 0 mm 3 m/s 760 mmHg 96%

25 Juin, Vendredi

Heure Température Précipitation Vent Pression Humidité
00:00 +16°C° 0 mm 3 m/s 760 mmHg 96%
01:00 +16°C° 0 mm 3 m/s 760 mmHg 96%
02:00 +16°C° 0 mm 2 m/s 760 mmHg 96%
03:00 +16°C° 0 mm 2 m/s 759 mmHg 96%
04:00 +16°C° 0 mm 2 m/s 759 mmHg 96%
05:00 +17°C° 0 mm 2 m/s 759 mmHg 90%
06:00 +19°C° 0 mm 2 m/s 759 mmHg 84%
07:00 +20°C° 0 mm 2 m/s 759 mmHg 77%
08:00 +21°C° 0 mm 2 m/s 759 mmHg 76%
09:00 +21°C° 0 mm 2 m/s 759 mmHg 74%
10:00 +23°C° 0 mm 2 m/s 759 mmHg 72%
11:00 +24°C° 0 mm 3 m/s 759 mmHg 68%
12:00 +25°C° 0 mm 3 m/s 759 mmHg 64%
13:00 +26°C° 0 mm 4 m/s 759 mmHg 60%
14:00 +23°C° 0 mm 5 m/s 759 mmHg 65%
15:00 +22°C° 0 mm 6 m/s 759 mmHg 70%
16:00 +21°C° 0 mm 7 m/s 758 mmHg 75%
17:00 +20°C° 0 mm 7 m/s 759 mmHg 78%
18:00 +18°C° 0 mm 7 m/s 759 mmHg 81%
19:00 +17°C° 0 mm 7 m/s 759 mmHg 84%
20:00 +16°C° 0 mm 6 m/s 759 mmHg 86%
21:00 +15°C° 0 mm 6 m/s 759 mmHg 89%
22:00 +14°C° 0 mm 5 m/s 760 mmHg 91%
23:00 +14°C° 0 mm 5 m/s 760 mmHg 91%
Voir plus

Nous avons besoin de votre consentement

Meteoprog et ses fournisseurs de services peuvent stocker et accéder à des données personnelles telles que des cookies, des identifiants d'appareils ou d'autres technologies similaires sur votre appareil et traiter ces données pour personnaliser le contenu et les publicités, ainsi que pour fournir des fonctionnalités de médias sociaux et analyser le trafic.

  • Stocker et/ou accéder à des informations sur votre appareil

    Des cookies, des identifiants d'appareils ou d'autres informations peuvent être stockés ou accessibles sur votre appareil aux fins indiquées ci-dessus.

  • Annonces et contenus personnalisés, mesure des annonces et des contenus, connaissance de l'audience et développement de produits

    Les annonces et le contenu peuvent être personnalisés en fonction d'un profil. D'autres données peuvent être ajoutées pour mieux personnaliser les annonces et le contenu. Les performances des publicités et du contenu peuvent être mesurées. Il est possible d'obtenir des informations sur le public qui a vu les publicités et le contenu. Ces données peuvent être utilisées pour développer ou améliorer l'expérience de l'utilisateur, les systèmes et les logiciels.

En cliquant sur "J'accepte", vous autorisez l'utilisation de cookies, des identifiants d'appareils, des balises web ou d'autres technologies similaires. Vos paramètres peuvent être modifiés dans le navigateur de votre appareil.

Dans certains cas, des intérêts légitimes peuvent être invoqués plutôt qu'un consentement. Vous pouvez en savoir plus à ce sujet dans notre Politique de confidentialité et de cookies.